星链-32423 (STARLINK-32423)

导读

STARLINK-32423是美国SpaceX星链互联网星座中的一员,于2024年9月20日,在Starlink 8-6任务中由猎鹰9号火箭送入近地轨道,是星链低轨卫星互联网组网的一部分。这类卫星运行在数百公里高度的近地轨道,通过批量组网,可为全球偏远地区提供高速宽带互联网服务,目前该卫星已在轨运行超过一年半时间,为星座的全球覆盖能力提供支撑。

基本信息
目录编号:
61218
目录名称:
STARLINK-32423
国际标识:
2024-171U
轨道中心:
EARTH
卫星名称:
星链-32423
卫星全名:
星链-32423 (STARLINK-32423)
卫星状态:
在轨 (已飞行632 天)
发射日期:
2024-09-20 UTC
国别 :
美国 (US)
星等 :
--
轨道信息
数据来源 国际轨道数据 AOE轨道数据
星历时间 2026-06-14T06:23:15+0800
11小时前
查看轨道信息
2026-06-12T04:00:00+0800
2天前
查看轨道信息
半长轴 6853.344km 6853.307km
偏心率 0.0001298 0.0001123
轨道倾角 53.160° 53.158°
近地点辐角 76.745° 71.098°
升交点赤经 235.413° 245.167°
平近点角 283.369° 237.147°
近地点 474.317km 474.4km
远地点 476.097km 475.94km
周期 94.105分钟 94.104分钟
每日圈数 15.302029 15.302152
详细信息
固有亮度:
5
最大亮度:
2.5
卫星平台:
Starlink V1.0
覆盖范围:
全球
运营商:
太空探索技术公司
运营商所在国:
美国
制造商(研发单位):
太空探索技术公司
制造商所在国:
美国
使用方式:
暂无
卫星简介
Starlink 计划是 SpaceX 推出的全球卫星互联网项目,通过发射低轨道卫星,为全球尤其是偏远地区提供高速、低延迟的互联网服务。自 2019 年起,Starlink 已部署数千颗卫星,旨在缩小全球数字鸿沟,推动互联网普及。该项目还为军事、航空等行业提供通信支持,带来广泛经济效益。
2D轨道图
3D轨道图
轨道高度分析图
轨道倾角分析图
轨道综合分析图
查看轨道综合分析图